Powrót do katalogu

STARLINK-34062

AktywnyŁącznośćVLEO
NORAD 64021·PAYLOAD·🇺🇸 United States

Wystrzelony May 14, 2025 z Cape Canaveral Space Force Station

Loading…

Następne Przeloty (najbliższe 24 godziny)

TLE

ŚwieżeSource: CelesTrak SupGP

Epoka: Sep 15, 2026, 02:18 UTC

1 64021C 25101AD  26258.09631944  .00010993  00000+0  39808-3 0  2581
2 64021  43.0037   8.0834 0001493 265.3885 139.5609 15.27578449    15

Śledź STARLINK-34062 w czasie rzeczywistym z AllMySat

Download on the App Store